Location: Basse Occidentale du Courleau
(48.3833°N, 4.8333°W)
Time: 19:52:31
(UTC+00:00)

CARTOSAT-1 - Pass Details

Date: 05 July 2020
Orbit: 617 x 618 km, 97.8° (Epoch: 05 August)

Event Time Altitude Azimuth Distance (km) Brightness Sun altitude
Exits shadow 22:10:03 14° 183° (S) 1,728 5.4 -12.9°
Maximum altitude 22:13:38 55° 259° (W) 747 4.1 -13.2°
Drops below altitude 10° 22:17:54 10° 338° (NNW) 1,993 7.6 -13.5°
Sets 22:20:09 0° 343° (NNW) 2,904 8.7 -13.7°
